Location: Paderno d�Adda
(45.6667°N, 9.4333°E)
Time: 00:03:19
(UTC+00:00)

Cosmos 1603 - Pass Details

Date: 19 September 2020
Orbit: 832 x 858 km, 71.0° (Epoch: 26 October)

Event Time Altitude Azimuth Distance (km) Brightness Sun altitude
Rises 18:08:17 0° 332° (NNW) 3,418 7.5 -8.3°
Reaches altitude 10° 18:10:45 10° 330° (NNW) 2,475 6.8 -8.8°
Maximum altitude 18:16:24 70° 248° (WSW) 896 4.1 -9.7°
Drops below altitude 10° 18:21:57 10° 166° (SSE) 2,442 5.8 -10.7°
Sets 18:24:23 0° 164° (SSE) 3,369 6.5 -11.1°
